Weather History for China Lake, CA

Change the Weather History Date:

Monday, April 14, 2014

  Actual Average Record
Temperature  
Mean Temperature 66 °F -  
Max Temperature 80 °F 71 °F 93 °F (2002)
Min Temperature 53 °F 47 °F 34 °F (2011)
Cooling Degree Days 1    
Growing Degree Days 16 (Base 50)    
Moisture  
Dew Point 7 °F    
Average Humidity 10    
Maximum Humidity 16    
Minimum Humidity 6    
Precipitation  
Precipitation 0.00 in - - ()
Sea Level Pressure  
Sea Level Pressure 30.07 in    
Wind  
Wind Speed 9 mph (SE)    
Max Wind Speed 16 mph    
Max Gust Speed 22 mph    
Visibility 10 miles    
Events      
Averages and records for this station are not official NWS values.
T = Trace of Precipitation, MM = Missing Value Source: NWS Daily Summary

Daily Weather History Graph

Daily Weather History Graph

Search for Another Location

Airport:

Trip Planner

Search our weather history database for the weather conditions in past years. The results will help you decide how hot, cold, wet, or windy it might be!

Date:

Astronomy

Apr. 14, 2014 Rise Set
Actual Time 6:19 AM PDT 7:23 PM PDT
Civil Twilight 5:52 AM PDT 7:49 PM PDT
Nautical Twilight 5:21 AM PDT 8:20 PM PDT
Astronomical Twilight 4:49 AM PDT 8:53 PM PDT
Moon 7:07 PM PDT (4/14) 5:52 AM PDT (4/14)
Length of Visible Light 13h 56m
Length of Day
13h 04m
Full, 100% of the Moon is Illuminated
Apr 14
Full
Apr 15
Full
Apr 22
Last Quarter
Apr 28
New
May 6
First Quarter

Hourly Weather History & Observations

Time (PDT) Temp. Dew Point Humidity Pressure Visibility Wind Dir Wind Speed Gust Speed Precip Events Conditions
12:56 AM 66.9 °F 1.9 °F 8% 29.98 in 10.0 mi NNW 16.1 mph 21.9 mph N/A   Unknown
1:56 AM 64.0 °F 3.0 °F 9% 30.01 in 10.0 mi NNW 4.6 mph - N/A   Unknown
2:56 AM 63.0 °F 5.0 °F 10% 30.01 in 10.0 mi WNW 13.8 mph - N/A   Unknown
3:56 AM 61.0 °F 5.0 °F 11% 30.04 in 10.0 mi NNW 12.7 mph - N/A   Unknown
4:56 AM 57.0 °F 6.1 °F 13% 30.06 in 10.0 mi NNW 4.6 mph - N/A   Unknown
5:56 AM 55.9 °F 8.1 °F 15% 30.08 in 10.0 mi West 8.1 mph - N/A   Clear
6:56 AM 53.1 °F 8.1 °F 16% 30.12 in 10.0 mi West 3.5 mph - N/A   Clear
7:56 AM 62.1 °F 9.0 °F 12% 30.15 in 10.0 mi SW 4.6 mph - N/A   Clear
8:56 AM 66.9 °F 8.1 °F 10% 30.16 in 10.0 mi SE 5.8 mph - N/A   Clear
9:56 AM 69.1 °F 8.1 °F 9% 30.16 in 10.0 mi Variable 3.5 mph - N/A   Clear
10:56 AM 71.1 °F 8.1 °F 9% 30.15 in 10.0 mi Calm Calm - N/A   Clear
11:56 AM 73.9 °F 7.0 °F 8% 30.14 in 10.0 mi NE 9.2 mph - N/A   Clear
12:56 PM 75.0 °F 7.0 °F 7% 30.12 in 10.0 mi North - - N/A   Clear
1:56 PM 77.0 °F 7.0 °F 7% 30.11 in 10.0 mi ESE 6.9 mph 16.1 mph N/A   Partly Cloudy
2:56 PM 77.0 °F 7.0 °F 7% 30.08 in 10.0 mi East 8.1 mph - N/A   Partly Cloudy
3:56 PM 78.1 °F 7.0 °F 7% 30.05 in 10.0 mi NW 4.6 mph - N/A   Clear
4:56 PM 79.0 °F 8.1 °F 7% 30.03 in 10.0 mi SE 5.8 mph - N/A   Unknown
5:56 PM 79.0 °F 7.0 °F 6% 30.01 in 10.0 mi ESE 8.1 mph - N/A   Clear
6:56 PM 77.0 °F 8.1 °F 7% 30.01 in 10.0 mi ESE 6.9 mph - N/A   Clear
7:56 PM 70.0 °F 8.1 °F 9% 30.01 in 10.0 mi ESE 5.8 mph - N/A   Clear
8:56 PM 66.9 °F 8.1 °F 10% 30.03 in 10.0 mi SSW 5.8 mph - N/A   Clear
9:56 PM 64.9 °F 9.0 °F 11% 30.03 in 10.0 mi South 9.2 mph - N/A   Unknown
10:56 PM 62.1 °F 10.0 °F 13% 30.03 in 10.0 mi South 9.2 mph - N/A   Clear
11:56 PM 61.0 °F 12.0 °F 15% 30.01 in 10.0 mi SE 5.8 mph - N/A   Unknown